STARLINK-35086 (65699 NORAD) Tracking and Keplerian Element Data

This shows tracking and keplerian element data for the satellite.

Feedback or suggestion? Click here.




ElementValue
Catalog65699
NameSTARLINK-35086
Epoch Orbit1501
Epoch Day354.16608502
Epoch Year2025
RAAN355.3692
Inclination53.1587
Eccentricity0.0001188
Argument of Perigee76.1903
Mean Anonmoly283.923
Mean Motion15.30195931
Decay Rate0.0001598
L11 65699U 25212Z 25354.16608502 .00015980 00000+0 55055-3 0 9999
L22 65699 53.1587 355.3692 0001188 76.1903 283.9230 15.30195931 15014



Live tracking and technical data element details for STARLINK-35086 (NORAD 65699). STARLINK-35086 can be tracked NOW for your location showing map with azimuth and elevation plus other details from your city location.







IsCatalogInMostPopularTable: catalog: 65699, numindb: 12
Update: records affected: 1



GetName: 65699 STARLINK-35086

Hit Count: updated at: Mon, 20 Apr 2026 09:29:08 GMT